QPF
0.09 0.08 0.08 0.08 0.08 0.08 0.07 0.09 0.10 0.09 0.07 0.05 0.04 0.03 0.03 0.02 0.01 0.01 0.01 0.01 0.02 0.03 0.04 0.05 0.04 0.05 0.06 0.06 0.06 0.06 0.05 0.05 0.06 0.06 0.05 0.04 0.05 0.05 0.05 0.05 0.06 0.06 0.07
0.06 0.06 0.06 0.07 0.09 0.10 0.08 0.10 0.13 0.11 0.09 0.07 0.05 0.04 0.02 0.02 0.01 0.01 0.01 0.01 0.02 0.03 0.03 0.03 0.04 0.04 0.05 0.06 0.07 0.07 0.05 0.05 0.04 0.05 0.05 0.04 0.04 0.04 0.05 0.04 0.04 0.04 0.06
0.05 0.05 0.04 0.05 0.07 0.09 0.10 0.11 0.14 0.13 0.10 0.08 0.06 0.04 0.03 0.02 0.01 0.01 0.01 0.01 0.01 0.02 0.02 0.02 0.04 0.04 0.04 0.04 0.05 0.05 0.06 0.05 0.03 0.04 0.04 0.04 0.05 0.05 0.05 0.05 0.04 0.04 0.04
0.05 0.05 0.04 0.05 0.06 0.06 0.07 0.09 0.11 0.11 0.10 0.10 0.08 0.07 0.05 0.03 0.01 0.01 0.01 0.01 0.02 0.02 0.02 0.02 0.02 0.03 0.03 0.04 0.04 0.04 0.05 0.06 0.05 0.05 0.05 0.05 0.05 0.05 0.06 0.07 0.06 0.06 0.05
0.04 0.05 0.06 0.07 0.08 0.08 0.07 0.07 0.09 0.08 0.08 0.09 0.09 0.07 0.06 0.05 0.04 0.03 0.02 0.01 0.01 0.02 0.03 0.02 0.02 0.02 0.03 0.03 0.04 0.05 0.05 0.05 0.05 0.05 0.05 0.05 0.05 0.05 0.05 0.06 0.06 0.05 0.05
0.03 0.05 0.06 0.07 0.07 0.07 0.07 0.08 0.08 0.07 0.06 0.07 0.08 0.07 0.06 0.05 0.05 0.05 0.03 0.02 0.02 0.02 0.02 0.03 0.02 0.02 0.02 0.02 0.03 0.04 0.05 0.06 0.06 0.05 0.04 0.04 0.04 0.04 0.04 0.04 0.05 0.05 0.05
0.02 0.04 0.04 0.07 0.07 0.07 0.07 0.07 0.08 0.07 0.07 0.08 0.09 0.09 0.07 0.05 0.05 0.04 0.04 0.02 0.02 0.01 0.02 0.03 0.03 0.02 0.01 0.01 0.02 0.03 0.04 0.06 0.06 0.06 0.05 0.04 0.04 0.03 0.04 0.04 0.04 0.04 0.04
0.02 0.03 0.04 0.05 0.07 0.08 0.08 0.08 0.09 0.08 0.06 0.07 0.08 0.09 0.08 0.07 0.04 0.03 0.03 0.02 0.02 0.02 0.03 0.02 0.02 0.02 0.03 0.02 0.01 0.01 0.03 0.04 0.06 0.07 0.06 0.05 0.04 0.04 0.04 0.05 0.05 0.05 0.04
0.02 0.02 0.03 0.05 0.06 0.07 0.07 0.07 0.09 0.09 0.07 0.07 0.08 0.09 0.08 0.07 0.04 0.03 0.02 0.02 0.02 0.02 0.02 0.03 0.02 0.02 0.02 0.02 0.01 0.01 0.01 0.03 0.04 0.05 0.06 0.05 0.04 0.04 0.04 0.05 0.06 0.06 0.06
0.02 0.02 0.03 0.03 0.04 0.05 0.05 0.05 0.06 0.08 0.09 0.08 0.07 0.07 0.07 0.05 0.05 0.04 0.03 0.03 0.03 0.03 0.02 0.02 0.02 0.01 0.01 0.02 0.01 0.01 0.01 0.02 0.02 0.03 0.05 0.05 0.05 0.05 0.05 0.04 0.04 0.05 0.06
0.01 0.02 0.03 0.03 0.03 0.03 0.03 0.03 0.04 0.06 0.08 0.07 0.05 0.05 0.05 0.06 0.05 0.06 0.04 0.04 0.04 0.04 0.03 0.02 0.02 0.02 0.01 0.01 0.01 0.01 0.01 0.01 0.02 0.02 0.03 0.04 0.04 0.05 0.05 0.04 0.03 0.04 0.05
0.02 0.02 0.03 0.04 0.04 0.03 0.03 0.03 0.03 0.05 0.05 0.06 0.06 0.05 0.04 0.04 0.04 0.05 0.05 0.05 0.06 0.06 0.05 0.03 0.02 0.02 0.02 0.02 0.01 0.01 0.01 0.01 0.02 0.02 0.03 0.03 0.04 0.04 0.03 0.03 0.03 0.03 0.03
0.02 0.02 0.03 0.05 0.05 0.04 0.04 0.04 0.05 0.05 0.05 0.05 0.06 0.05 0.04 0.04 0.05 0.05 0.05 0.05 0.06 0.06 0.06 0.04 0.04 0.04 0.02 0.02 0.02 0.01 0.01 0.01 0.02 0.02 0.02 0.02 0.03 0.03 0.03 0.03 0.03 0.03 0.03
0.02 0.02 0.03 0.05 0.05 0.05 0.05 0.05 0.06 0.06 0.06 0.05 0.05 0.06 0.04 0.04 0.05 0.06 0.05 0.05 0.05 0.05 0.05 0.05 0.04 0.04 0.03 0.02 0.02 0.01 0.02 0.01 0.01 0.02 0.02 0.02 0.02 0.03 0.03 0.03 0.03 0.02 0.02
0.02 0.02 0.03 0.05 0.06 0.05 0.05 0.06 0.06 0.05 0.05 0.05 0.05 0.06 0.05 0.05 0.04 0.05 0.05 0.05 0.06 0.05 0.04 0.03 0.02 0.03 0.03 0.03 0.03 0.02 0.02 0.02 0.01 0.02 0.02 0.02 0.02 0.03 0.03 0.03 0.03 0.02 0.02
0.02 0.03 0.04 0.05 0.06 0.06 0.06 0.07 0.07 0.05 0.06 0.05 0.06 0.05 0.06 0.06 0.05 0.05 0.04 0.05 0.06 0.05 0.04 0.03 0.02 0.02 0.02 0.02 0.03 0.03 0.03 0.03 0.02 0.02 0.02 0.02 0.02 0.02 0.03 0.03 0.03 0.02 0.02
0.03 0.03 0.03 0.05 0.05 0.07 0.07 0.08 0.07 0.06 0.05 0.06 0.06 0.05 0.06 0.07 0.07 0.05 0.05 0.05 0.05 0.05 0.05 0.04 0.03 0.02 0.02 0.03 0.03 0.04 0.04 0.04 0.03 0.02 0.02 0.02 0.02 0.02 0.02 0.02 0.02 0.02 0.02
0.04 0.04 0.04 0.05 0.05 0.06 0.07 0.08 0.07 0.07 0.08 0.07 0.07 0.06 0.07 0.07 0.07 0.06 0.05 0.05 0.05 0.05 0.05 0.05 0.04 0.03 0.02 0.03 0.03 0.03 0.03 0.03 0.02 0.02 0.02 0.02 0.02 0.01 0.01 0.01 0.01 0.01 0.02
0.05 0.05 0.05 0.05 0.05 0.05 0.05 0.06 0.06 0.07 0.08 0.08 0.09 0.08 0.07 0.08 0.07 0.06 0.05 0.04 0.04 0.04 0.05 0.06 0.05 0.03 0.03 0.03 0.04 0.03 0.02 0.03 0.02 0.02 0.02 0.02 0.01 0.01 0.01 0.01 0.01 0.01 0.01
0.03 0.04 0.05 0.05 0.05 0.04 0.05 0.05 0.05 0.05 0.07 0.08 0.07 0.06 0.06 0.06 0.07 0.06 0.06 0.06 0.06 0.06 0.05 0.05 0.04 0.04 0.04 0.05 0.04 0.03 0.03 0.03 0.03 0.02 0.02 0.02 0.02 0.02 0.02 0.02 0.01 0.01 0.01
0.04 0.04 0.04 0.05 0.05 0.04 0.03 0.03 0.03 0.05 0.05 0.07 0.09 0.09 0.08 0.08 0.07 0.07 0.07 0.06 0.06 0.06 0.05 0.05 0.04 0.04 0.04 0.05 0.04 0.03 0.03 0.03 0.03 0.02 0.02 0.02 0.02 0.03 0.03 0.02 0.01 0.01 0.01
0.04 0.05 0.05 0.05 0.04 0.02 0.02 0.02 0.02 0.04 0.06 0.08 0.08 0.09 0.10 0.12 0.11 0.08 0.07 0.07 0.06 0.05 0.04 0.04 0.04 0.04 0.04 0.04 0.05 0.04 0.03 0.04 0.03 0.03 0.03 0.03 0.03 0.03 0.03 0.02 0.01 0.01 0.01
0.07 0.07 0.06 0.04 0.03 0.03 0.02 0.02 0.02 0.03 0.03 0.04 0.05 0.07 0.08 0.09 0.10 0.09 0.08 0.07 0.06 0.05 0.05 0.05 0.04 0.05 0.04 0.03 0.05 0.04 0.05 0.05 0.04 0.02 0.03 0.03 0.03 0.03 0.02 0.02 0.01 0.01 0.01
0.08 0.09 0.05 0.03 0.03 0.03 0.03 0.02 0.02 0.03 0.03 0.03 0.03 0.04 0.05 0.08 0.11 0.12 0.12 0.10 0.08 0.07 0.06 0.06 0.05 0.05 0.05 0.04 0.04 0.04 0.04 0.04 0.03 0.03 0.02 0.03 0.03 0.03 0.03 0.02 0.01 0.01 0.01
0.07 0.07 0.04 0.03 0.03 0.02 0.02 0.02 0.02 0.04 0.04 0.03 0.04 0.04 0.05 0.05 0.06 0.09 0.11 0.13 0.13 0.10 0.07 0.06 0.05 0.04 0.04 0.03 0.03 0.03 0.03 0.04 0.05 0.04 0.04 0.04 0.04 0.03 0.03 0.03 0.01 0.01 0.01
0.05 0.04 0.03 0.02 0.02 0.02 0.02 0.01 0.02 0.04 0.04 0.04 0.04 0.04 0.04 0.05 0.04 0.04 0.06 0.09 0.12 0.14 0.13 0.09 0.06 0.05 0.05 0.04 0.03 0.04 0.04 0.05 0.06 0.06 0.04 0.04 0.04 0.04 0.04 0.03 0.02 0.02 0.02
MSLP
1011.94 1011.95 1012.00 1012.10 1012.29 1012.57 1012.95 1013.41 1013.90 1014.38 1014.80 1015.13 1015.34 1015.46 1015.52 1015.57 1015.65 1015.83 1016.12 1016.51 1016.98 1017.50 1018.02 1018.49 1018.90 1019.23 1019.49 1019.72 1019.91 1020.11 1020.30 1020.48 1020.66 1020.80 1020.90 1020.97 1021.01 1021.03 1021.04 1021.06 1021.10 1021.15 1021.20
1011.94 1011.91 1011.91 1011.97 1012.12 1012.39 1012.78 1013.26 1013.81 1014.36 1014.86 1015.27 1015.56 1015.73 1015.81 1015.83 1015.86 1015.94 1016.12 1016.39 1016.77 1017.21 1017.68 1018.15 1018.58 1018.95 1019.27 1019.54 1019.77 1019.98 1020.16 1020.32 1020.46 1020.58 1020.65 1020.71 1020.73 1020.74 1020.75 1020.77 1020.79 1020.81 1020.83
1011.95 1011.89 1011.86 1011.89 1012.03 1012.28 1012.67 1013.18 1013.78 1014.40 1015.00 1015.50 1015.87 1016.10 1016.20 1016.21 1016.17 1016.15 1016.19 1016.33 1016.57 1016.90 1017.29 1017.73 1018.16 1018.57 1018.94 1019.25 1019.52 1019.74 1019.92 1020.07 1020.19 1020.28 1020.34 1020.38 1020.40 1020.41 1020.42 1020.43 1020.43 1020.43 1020.42
1011.90 1011.85 1011.81 1011.83 1011.94 1012.19 1012.58 1013.11 1013.74 1014.42 1015.10 1015.69 1016.15 1016.46 1016.59 1016.59 1016.50 1016.38 1016.29 1016.28 1016.38 1016.58 1016.89 1017.27 1017.69 1018.11 1018.51 1018.86 1019.15 1019.39 1019.58 1019.72 1019.83 1019.90 1019.96 1020.00 1020.03 1020.05 1020.07 1020.08 1020.07 1020.05 1020.01
1011.74 1011.71 1011.69 1011.71 1011.82 1012.05 1012.43 1012.95 1013.60 1014.32 1015.06 1015.73 1016.28 1016.65 1016.84 1016.86 1016.74 1016.56 1016.36 1016.23 1016.19 1016.28 1016.49 1016.80 1017.19 1017.61 1018.02 1018.39 1018.71 1018.97 1019.16 1019.30 1019.41 1019.48 1019.54 1019.60 1019.65 1019.69 1019.72 1019.73 1019.72 1019.68 1019.62
1011.44 1011.46 1011.47 1011.51 1011.62 1011.83 1012.18 1012.67 1013.31 1014.04 1014.80 1015.53 1016.15 1016.60 1016.86 1016.92 1016.81 1016.60 1016.35 1016.13 1016.00 1015.99 1016.12 1016.37 1016.72 1017.12 1017.53 1017.91 1018.24 1018.51 1018.71 1018.86 1018.97 1019.05 1019.13 1019.20 1019.27 1019.34 1019.39 1019.41 1019.41 1019.36 1019.28
1011.02 1011.10 1011.16 1011.23 1011.33 1011.52 1011.82 1012.27 1012.85 1013.55 1014.32 1015.07 1015.74 1016.26 1016.60 1016.73 1016.68 1016.48 1016.23 1015.98 1015.80 1015.73 1015.81 1016.01 1016.32 1016.70 1017.10 1017.49 1017.82 1018.09 1018.30 1018.45 1018.57 1018.67 1018.76 1018.86 1018.95 1019.04 1019.11 1019.15 1019.15 1019.11 1019.02
1010.50 1010.65 1010.78 1010.88 1010.99 1011.15 1011.40 1011.77 1012.28 1012.92 1013.65 1014.40 1015.09 1015.67 1016.09 1016.31 1016.34 1016.22 1016.01 1015.79 1015.61 1015.54 1015.59 1015.77 1016.06 1016.42 1016.81 1017.18 1017.51 1017.78 1017.99 1018.15 1018.28 1018.39 1018.50 1018.61 1018.72 1018.82 1018.91 1018.96 1018.97 1018.93 1018.84
1009.95 1010.18 1010.37 1010.52 1010.64 1010.77 1010.96 1011.26 1011.68 1012.23 1012.89 1013.60 1014.30 1014.91 1015.40 1015.71 1015.85 1015.83 1015.72 1015.58 1015.46 1015.42 1015.49 1015.67 1015.96 1016.31 1016.68 1017.05 1017.37 1017.64 1017.85 1018.01 1018.14 1018.26 1018.38 1018.49 1018.61 1018.72 1018.80 1018.85 1018.86 1018.83 1018.75
1009.42 1009.72 1009.98 1010.17 1010.31 1010.43 1010.57 1010.79 1011.12 1011.57 1012.14 1012.79 1013.46 1014.09 1014.62 1015.02 1015.27 1015.39 1015.40 1015.38 1015.36 1015.39 1015.52 1015.73 1016.03 1016.38 1016.75 1017.11 1017.43 1017.69 1017.90 1018.07 1018.20 1018.32 1018.43 1018.54 1018.65 1018.74 1018.81 1018.84 1018.84 1018.80 1018.73
1008.92 1009.29 1009.61 1009.85 1010.02 1010.14 1010.25 1010.41 1010.65 1011.01 1011.49 1012.06 1012.68 1013.30 1013.86 1014.33 1014.69 1014.93 1015.09 1015.20 1015.30 1015.45 1015.65 1015.92 1016.25 1016.62 1016.99 1017.35 1017.66 1017.92 1018.13 1018.30 1018.43 1018.55 1018.65 1018.74 1018.83 1018.89 1018.93 1018.94 1018.91 1018.85 1018.77
1008.44 1008.86 1009.23 1009.53 1009.74 1009.88 1009.99 1010.11 1010.30 1010.57 1010.96 1011.45 1012.01 1012.60 1013.18 1013.70 1014.14 1014.50 1014.80 1015.05 1015.29 1015.55 1015.85 1016.19 1016.57 1016.96 1017.35 1017.71 1018.03 1018.29 1018.50 1018.67 1018.81 1018.92 1019.01 1019.09 1019.14 1019.17 1019.17 1019.13 1019.06 1018.98 1018.88
1007.93 1008.39 1008.81 1009.17 1009.43 1009.62 1009.75 1009.87 1010.02 1010.25 1010.57 1010.99 1011.48 1012.03 1012.60 1013.15 1013.66 1014.12 1014.53 1014.92 1015.29 1015.67 1016.07 1016.49 1016.93 1017.35 1017.76 1018.13 1018.45 1018.72 1018.94 1019.12 1019.27 1019.38 1019.47 1019.53 1019.56 1019.56 1019.51 1019.42 1019.31 1019.18 1019.05
1007.35 1007.83 1008.30 1008.72 1009.05 1009.29 1009.48 1009.63 1009.79 1009.99 1010.27 1010.63 1011.06 1011.57 1012.11 1012.67 1013.22 1013.76 1014.28 1014.78 1015.28 1015.77 1016.27 1016.76 1017.25 1017.71 1018.14 1018.52 1018.85 1019.13 1019.37 1019.57 1019.74 1019.87 1019.97 1020.04 1020.05 1020.02 1019.94 1019.82 1019.66 1019.48 1019.30
1006.68 1007.19 1007.69 1008.16 1008.56 1008.88 1009.14 1009.35 1009.54 1009.75 1010.00 1010.33 1010.72 1011.18 1011.69 1012.25 1012.83 1013.42 1014.02 1014.61 1015.21 1015.80 1016.38 1016.94 1017.48 1017.97 1018.42 1018.81 1019.16 1019.46 1019.73 1019.96 1020.16 1020.33 1020.46 1020.54 1020.57 1020.54 1020.44 1020.29 1020.10 1019.88 1019.66
1005.96 1006.48 1007.01 1007.53 1007.99 1008.39 1008.72 1009.00 1009.24 1009.48 1009.74 1010.05 1010.41 1010.83 1011.32 1011.86 1012.45 1013.08 1013.73 1014.40 1015.07 1015.74 1016.38 1017.00 1017.57 1018.09 1018.56 1018.97 1019.33 1019.66 1019.95 1020.22 1020.47 1020.69 1020.87 1021.00 1021.06 1021.05 1020.97 1020.81 1020.61 1020.37 1020.11
1005.26 1005.78 1006.33 1006.87 1007.38 1007.84 1008.24 1008.59 1008.89 1009.17 1009.45 1009.75 1010.10 1010.50 1010.97 1011.50 1012.09 1012.73 1013.41 1014.13 1014.85 1015.57 1016.26 1016.92 1017.51 1018.05 1018.53 1018.96 1019.34 1019.69 1020.02 1020.34 1020.64 1020.92 1021.17 1021.36 1021.48 1021.52 1021.47 1021.35 1021.15 1020.91 1020.63
1004.66 1005.18 1005.73 1006.28 1006.81 1007.31 1007.76 1008.16 1008.51 1008.83 1009.13 1009.45 1009.79 1010.18 1010.63 1011.14 1011.72 1012.37 1013.07 1013.81 1014.56 1015.31 1016.03 1016.71 1017.32 1017.88 1018.37 1018.80 1019.20 1019.58 1019.95 1020.31 1020.67 1021.01 1021.33 1021.59 1021.78 1021.89 1021.91 1021.83 1021.67 1021.45 1021.19
1004.24 1004.75 1005.28 1005.82 1006.35 1006.85 1007.32 1007.75 1008.13 1008.48 1008.81 1009.14 1009.49 1009.87 1010.31 1010.81 1011.38 1012.03 1012.73 1013.47 1014.23 1014.99 1015.72 1016.41 1017.03 1017.59 1018.09 1018.54 1018.96 1019.36 1019.76 1020.16 1020.57 1020.98 1021.35 1021.69 1021.95 1022.13 1022.22 1022.21 1022.11 1021.93 1021.70
1004.04 1004.52 1005.02 1005.52 1006.02 1006.51 1006.97 1007.39 1007.79 1008.16 1008.51 1008.85 1009.21 1009.60 1010.03 1010.53 1011.09 1011.72 1012.41 1013.14 1013.90 1014.65 1015.38 1016.07 1016.70 1017.26 1017.77 1018.23 1018.67 1019.09 1019.51 1019.95 1020.39 1020.83 1021.26 1021.64 1021.97 1022.22 1022.38 1022.44 1022.40 1022.29 1022.10
1004.02 1004.47 1004.93 1005.38 1005.83 1006.28 1006.71 1007.12 1007.52 1007.89 1008.26 1008.62 1008.99 1009.39 1009.83 1010.32 1010.87 1011.49 1012.16 1012.87 1013.60 1014.34 1015.06 1015.74 1016.37 1016.94 1017.46 1017.93 1018.38 1018.82 1019.26 1019.71 1020.16 1020.63 1021.07 1021.49 1021.86 1022.15 1022.36 1022.48 1022.51 1022.46 1022.34
1004.10 1004.53 1004.94 1005.35 1005.74 1006.14 1006.54 1006.93 1007.32 1007.71 1008.09 1008.47 1008.87 1009.29 1009.74 1010.23 1010.77 1011.37 1012.01 1012.69 1013.40 1014.11 1014.81 1015.47 1016.10 1016.68 1017.21 1017.70 1018.16 1018.60 1019.05 1019.50 1019.95 1020.40 1020.85 1021.26 1021.64 1021.95 1022.19 1022.36 1022.44 1022.44 1022.37
1004.19 1004.60 1004.98 1005.34 1005.70 1006.06 1006.43 1006.82 1007.21 1007.61 1008.02 1008.44 1008.87 1009.31 1009.78 1010.28 1010.81 1011.38 1012.00 1012.65 1013.32 1013.99 1014.67 1015.32 1015.94 1016.52 1017.06 1017.57 1018.04 1018.49 1018.93 1019.36 1019.79 1020.21 1020.62 1021.01 1021.36 1021.67 1021.91 1022.09 1022.20 1022.24 1022.22
1004.19 1004.60 1004.96 1005.31 1005.66 1006.01 1006.38 1006.78 1007.19 1007.62 1008.07 1008.53 1009.00 1009.48 1009.97 1010.48 1011.01 1011.57 1012.15 1012.76 1013.39 1014.03 1014.68 1015.31 1015.92 1016.51 1017.06 1017.57 1018.05 1018.50 1018.93 1019.33 1019.72 1020.10 1020.45 1020.79 1021.09 1021.36 1021.58 1021.75 1021.87 1021.92 1021.92
1004.08 1004.49 1004.88 1005.24 1005.61 1005.98 1006.38 1006.81 1007.27 1007.75 1008.25 1008.76 1009.28 1009.80 1010.32 1010.84 1011.37 1011.91 1012.46 1013.03 1013.62 1014.22 1014.84 1015.45 1016.06 1016.64 1017.19 1017.71 1018.20 1018.64 1019.05 1019.42 1019.76 1020.08 1020.36 1020.63 1020.87 1021.08 1021.26 1021.40 1021.50 1021.55 1021.54
1003.88 1004.33 1004.75 1005.16 1005.57 1006.00 1006.45 1006.93 1007.44 1007.98 1008.54 1009.11 1009.67 1010.24 1010.78 1011.32 1011.85 1012.37 1012.89 1013.43 1013.98 1014.55 1015.13 1015.72 1016.31 1016.89 1017.45 1017.97 1018.45 1018.89 1019.27 1019.61 1019.90 1020.15 1020.37 1020.56 1020.73 1020.88 1021.01 1021.10 1021.17 1021.19 1021.17
Thickness
5719 5717 5715 5714 5715 5715 5713 5712 5712 5711 5711 5712 5713 5713 5713 5714 5714 5714 5713 5709 5707 5707 5707 5706 5706 5705 5705 5705 5704 5704 5704 5704 5704 5703 5703 5703 5702 5703 5703 5704 5704 5704 5704
5713 5712 5710 5710 5711 5711 5710 5708 5708 5706 5707 5707 5708 5708 5709 5710 5709 5709 5709 5707 5704 5704 5703 5703 5703 5703 5702 5702 5702 5701 5701 5701 5701 5701 5701 5701 5701 5700 5701 5701 5701 5702 5701
5708 5707 5707 5706 5706 5706 5705 5704 5704 5702 5702 5703 5703 5703 5704 5705 5705 5704 5705 5705 5704 5702 5701 5700 5700 5699 5699 5699 5698 5698 5698 5698 5698 5698 5698 5698 5698 5698 5699 5699 5699 5700 5699
5703 5702 5703 5703 5701 5701 5702 5701 5701 5699 5699 5698 5698 5699 5700 5700 5700 5700 5701 5701 5702 5702 5700 5698 5697 5696 5696 5696 5695 5695 5695 5695 5695 5695 5696 5696 5696 5696 5696 5696 5697 5697 5697
5698 5698 5698 5698 5697 5698 5698 5698 5696 5694 5694 5693 5694 5694 5696 5697 5697 5697 5697 5698 5698 5697 5698 5697 5694 5693 5692 5692 5692 5692 5692 5693 5692 5692 5693 5693 5694 5694 5694 5694 5694 5694 5695
5693 5693 5694 5692 5693 5693 5692 5691 5690 5689 5689 5689 5690 5691 5691 5692 5693 5694 5694 5695 5694 5695 5695 5695 5694 5692 5689 5689 5689 5689 5689 5689 5689 5690 5690 5690 5690 5690 5691 5691 5691 5691 5691
5688 5688 5690 5688 5688 5688 5687 5687 5686 5685 5684 5684 5683 5683 5686 5688 5688 5688 5690 5691 5692 5691 5691 5691 5691 5691 5690 5687 5686 5686 5685 5685 5685 5686 5686 5687 5687 5687 5687 5687 5687 5687 5688
5682 5684 5683 5683 5683 5682 5681 5680 5679 5680 5681 5680 5678 5677 5678 5680 5682 5686 5686 5686 5687 5688 5688 5688 5687 5687 5688 5688 5685 5683 5682 5682 5682 5682 5683 5683 5683 5682 5683 5683 5683 5683 5684
5678 5677 5677 5677 5677 5678 5677 5675 5675 5674 5674 5675 5676 5674 5673 5674 5677 5681 5681 5682 5682 5683 5684 5685 5684 5683 5683 5684 5684 5681 5679 5679 5678 5678 5679 5679 5679 5679 5679 5679 5679 5679 5680
5674 5672 5671 5671 5672 5673 5673 5672 5672 5671 5670 5671 5672 5672 5673 5673 5669 5671 5675 5678 5678 5678 5679 5681 5681 5680 5679 5679 5678 5677 5675 5674 5674 5674 5674 5674 5674 5674 5674 5674 5674 5674 5675
5669 5668 5667 5666 5667 5668 5668 5667 5666 5666 5667 5667 5668 5668 5667 5666 5666 5665 5666 5669 5672 5674 5675 5675 5676 5676 5675 5674 5674 5673 5671 5670 5669 5669 5669 5669 5669 5669 5669 5668 5669 5669 5670
5667 5665 5663 5662 5662 5663 5662 5662 5662 5662 5662 5662 5663 5664 5664 5662 5662 5662 5662 5662 5664 5668 5669 5669 5670 5671 5670 5670 5670 5667 5665 5664 5663 5663 5663 5663 5663 5663 5663 5663 5663 5664 5664
5663 5661 5660 5659 5658 5658 5658 5658 5657 5657 5657 5656 5657 5659 5660 5660 5660 5660 5659 5659 5658 5662 5662 5665 5666 5666 5666 5666 5664 5661 5660 5659 5658 5658 5658 5657 5657 5657 5657 5657 5657 5658 5658
5660 5658 5656 5655 5654 5654 5654 5653 5653 5653 5653 5652 5653 5653 5654 5655 5656 5656 5656 5654 5653 5655 5658 5659 5661 5662 5661 5660 5659 5656 5656 5654 5653 5653 5652 5652 5651 5651 5651 5651 5651 5652 5652
5656 5654 5653 5652 5651 5651 5650 5649 5649 5648 5649 5649 5649 5649 5649 5651 5651 5652 5652 5652 5649 5648 5651 5654 5656 5658 5656 5655 5653 5652 5652 5650 5649 5648 5647 5646 5646 5645 5645 5645 5645 5645 5645
5650 5649 5648 5648 5647 5647 5646 5645 5645 5645 5643 5644 5643 5642 5643 5645 5646 5646 5647 5647 5648 5647 5647 5651 5651 5653 5650 5650 5648 5648 5647 5646 5645 5643 5642 5641 5640 5640 5640 5639 5639 5639 5639
5646 5644 5644 5643 5643 5643 5642 5641 5641 5641 5640 5640 5639 5639 5638 5639 5640 5642 5642 5643 5644 5644 5642 5645 5647 5647 5643 5642 5643 5643 5643 5642 5643 5640 5638 5636 5635 5634 5633 5632 5632 5632 5632
5642 5641 5639 5639 5639 5639 5638 5638 5636 5637 5636 5635 5635 5635 5635 5636 5635 5636 5637 5639 5640 5640 5639 5637 5639 5640 5638 5638 5638 5637 5639 5640 5639 5636 5634 5632 5630 5628 5627 5625 5624 5624 5624
5638 5637 5636 5635 5634 5634 5634 5633 5633 5632 5632 5632 5632 5632 5632 5632 5631 5633 5633 5635 5635 5637 5636 5634 5634 5635 5634 5634 5633 5633 5634 5633 5633 5632 5630 5627 5625 5623 5621 5619 5618 5618 5617
5634 5633 5632 5631 5630 5630 5630 5630 5630 5629 5629 5630 5630 5629 5629 5629 5629 5630 5630 5630 5630 5630 5630 5630 5630 5630 5630 5630 5629 5629 5628 5629 5629 5629 5626 5624 5621 5618 5617 5615 5613 5611 5610
5631 5629 5628 5628 5627 5627 5626 5626 5626 5627 5626 5627 5627 5627 5627 5626 5626 5625 5627 5627 5626 5626 5627 5627 5627 5627 5627 5625 5625 5626 5625 5625 5624 5624 5622 5620 5619 5617 5614 5610 5607 5605 5603
5627 5627 5626 5625 5624 5624 5621 5618 5619 5622 5623 5623 5624 5624 5624 5624 5622 5620 5620 5620 5621 5622 5624 5624 5624 5623 5622 5622 5622 5621 5620 5618 5617 5618 5616 5615 5615 5613 5611 5609 5604 5600 5597
5623 5623 5623 5622 5621 5619 5615 5613 5612 5614 5618 5619 5620 5620 5621 5623 5621 5621 5619 5616 5616 5616 5617 5619 5620 5620 5619 5619 5616 5615 5614 5614 5613 5613 5610 5610 5610 5608 5606 5604 5599 5594 5591
5620 5619 5619 5618 5618 5616 5612 5610 5609 5611 5614 5615 5616 5616 5616 5617 5618 5618 5618 5618 5618 5617 5617 5616 5616 5617 5617 5615 5612 5610 5609 5608 5608 5608 5606 5604 5604 5602 5601 5597 5592 5589 5585
5616 5616 5616 5615 5614 5612 5609 5607 5605 5609 5611 5612 5613 5613 5613 5613 5611 5610 5612 5613 5613 5614 5613 5612 5612 5611 5609 5608 5606 5605 5605 5604 5604 5604 5602 5599 5598 5596 5594 5591 5587 5583 5580
5613 5614 5613 5612 5611 5610 5606 5603 5601 5606 5608 5609 5609 5610 5608 5607 5606 5605 5607 5608 5609 5610 5611 5610 5608 5607 5606 5605 5601 5601 5602 5601 5599 5597 5597 5594 5592 5590 5587 5586 5584 5580 5576